Simultaneous Nadir Overpasses (SNOs) Predictions

Prediction of SNOs between FY3D and AQUA Satellite Orbit:

Table of predicted SNOs for the next 14.0 days since TLE Epoch: 7/15/2023
Index Date (FY3D) Time (FY3D) Lat,Lon (FY3D) SZA (FY3D ) Date (AQUA) Time (AQUA) Lat,Lon (AQUA) SZA (AQUA ) Distance(km) Time Diff (sec)
1 07/15/2023 04:13:29 -79.33, -86.74 121.22 07/15/2023 04:14:43 -79.38, -86.57 121.21 6.77 74
2 07/15/2023 05:03:51 78.46, 86.66 57.52 07/15/2023 05:03:45 78.47, 86.56 57.53 2.21 6
3 07/17/2023 17:58:53 78.84,-109.49 58.47 07/17/2023 17:59:58 78.85,-109.54 58.46 0.95 65
4 07/17/2023 18:49:29 -78.52, 59.93 121.98 07/17/2023 18:49:14 -78.52, 59.94 121.98 0.21 15
5 07/20/2023 07:44:27 -78.76,-135.29 121.19 07/20/2023 07:45:23 -78.77,-135.40 121.20 2.48 56
6 07/20/2023 08:35:05 78.44, 34.04 58.38 07/20/2023 08:34:40 78.45, 33.99 58.39 1.21 25
7 07/22/2023 21:30:03 78.73,-161.44 59.26 07/22/2023 21:30:48 78.73,-161.55 59.26 2.66 45
8 07/22/2023 22:20:39 -78.40, 7.94 121.19 07/22/2023 22:20:04 -78.39, 7.92 121.18 0.47 35
9 07/25/2023 11:15:40 -78.76, 171.99 120.16 07/25/2023 11:16:14 -78.75, 172.01 120.18 0.50 34
10 07/25/2023 12:06:17 78.40, -18.47 59.36 07/25/2023 12:05:30 78.40, -18.44 59.37 0.59 47
11 07/28/2023 01:01:18 78.77, 145.53 60.43 07/28/2023 01:01:39 78.76, 145.64 60.40 2.75 21



Historial Predications of SNOs between FY3D and AQUA
